Zurück zum Katalog

COSMOS 2499 DEB

AktivPO
NORAD 49929·DEBRIS·🇷🇺 Russia

Gestartet May 23, 2014 von Plesetsk Cosmodrome

Loading…

Nächste Überflüge (nächste 24 Stunden)

TLE

AktuellSource: Space-Track

Epoche: Sep 14, 2026, 03:06 UTC

1 49929U 14028L   26257.12967341  .00004648  00000-0  14403-1 0  9998
2 49929  82.5485 194.7436 0276889  86.3361 276.9363 12.92577087229128

Verfolge COSMOS 2499 DEB in Echtzeit mit AllMySat

Download on the App Store